ATLAS 5 CENTAUR DEB, 44106

Orbit data source: Space-Track

ATLAS 5 CENTAUR DEB, 44106 is space debris in HEO originally from a launch on Wed, 17 Sep 2014 UTC launched from the Air Force Eastern Test Range (AFETR). Debris objects in space refer to the collection of defunct objects orbiting the Earth. Examples of debris include non-operational satellites, rocket bodies, and fragments generated from explosions, collisions, or faulty payload assembly.

Loading next visibility...
Identifier
44106, 2014-055CB
Orbit
HEO
Country
Flag of USUS
Related business
Flag of USUnited Launch Alliance/Lockheed Martin (US)
Manufacturer
Unknown
Mission
Spacecraft
Bus & Motor
Unknown
Mass
Unknown
Launch date (UTC)
2014-09-17 (11 years ago)
Launch vehicle
Unknown
Launch site
Air Force Eastern Test Range (AFETR)
Object type
Payload
Rocket body
Debris
Shape & HBR
Unknown shape, 1.1 m
Radar Cross Section
Small (<0.1 m²)

Expand to show TLE details & history
Last TLE update: 2 months ago

TLE from 2 months ago
0 ATLAS 5 CENTAUR DEB
1 44106U 14055CB  25285.59787573 -.00000018  00000-0  00000-0 0  9993
2 44106  19.6588 167.0441 4888694 123.2776 293.2250  1.84994029 45167
Epoch: 2025-10-12T14:20Z
TLE epoch observation values (Epoch: 2025-10-12T14:20:56.463Z)
Latitude
0.00002°
Longitude
-69.5547°
Altitude
22,770.802 km
Speed
3.623 km/s
True Right ascension
11h 08m 22s
True Declination
0° 00' 00"
Sunlit
Object was in daylight at epoch
Visualization orbit readout
Latitude
Unknown
Longitude
Unknown
Altitude
Unknown
Speed
Unknown
Apparent Right ascension
Unknown
Apparent Declination
Unknown
Sunlit
N/A
Visualization observer readout
Local Sidereal Time
12:29:14
Azimuth
Unknown
Elevation
Unknown
Doppler factor
Unknown
Orbital elements
Apogee altitude
35,358.49 km
Perigee altitude
7,950.096 km
Semi-major axis
28,032.43 km
Eccentricity
0.48887
Inclination
19.6588°
RAAN
167.0441°
Arg. of periapsis
123.2776°
True anomaly
236.72094°
Mean anomaly
293.225°
Eccentric anomaly
265.30869°
Mean motion
0.46244 °/min
Orbital period
778.49 mins
BSTAR
0
Loading maneuver chart data...
Computing Atmospheric mass density...

Documentation

Showing up to 5 results
|